GW7014 Weather Reports


time (UTC)temp
C
wind
direction
speed
KPH
gust
KPH
rain 1hr
cm
rain 24hr
cm
rain mn
cm
humidity
%
barometer
mb
20260507191516 18 243 4.8 14.5 0.00 0.56 0.38 29 1005.6
20260507190013 18 342 4.8 14.5 0.00 0.58 0.38 28 1005.7
20260507184514 18 331 1.6 12.9 0.00 0.58 0.38 31 1005.8
20260507183018 18 143 1.6 14.5 0.00 0.58 0.38 32 1005.7
20260507181520 18 243 1.6 11.3 0.00 0.58 0.38 30 1006.0
20260507180022 18 308 1.6 12.9 0.00 0.58 0.38 31 1006.2
20260507174513 18 330 1.6 9.7 0.00 0.58 0.38 35 1006.2
20260507173034 18 217 0.0 8.0 0.00 0.58 0.38 38 1006.3
20260507171522 18 356 1.6 8.0 0.00 0.58 0.38 36 1006.3
20260507170013 18 279 3.2 11.3 0.00 0.58 0.38 35 1006.4
20260507164519 17 195 1.6 11.3 0.00 0.58 0.38 40 1006.7
20260507163018 18 304 1.6 8.0 0.00 0.58 0.38 42 1006.6
20260507161503 17 297 4.8 14.5 0.00 0.58 0.38 44 1006.9
20260507160004 17 197 0.0 11.3 0.00 0.58 0.38 48 1006.9
20260507154508 16 233 0.0 12.9 0.00 0.58 0.38 49 1007.0
20260507153012 15 255 1.6 9.7 0.00 0.58 0.38 56 1007.1
20260507151516 16 287 0.0 8.0 0.00 0.58 0.38 54 1007.3
20260507150004 16 301 0.0 3.2 0.00 0.58 0.38 57 1007.3
20260507144504 16 330 0.0 4.8 0.00 0.58 0.38 58 1007.5
20260507143018 15 237 0.0 4.8 0.00 0.58 0.38 58 1007.9
20260507141518 15 207 0.0 9.7 0.00 0.58 0.38 62 1007.8
20260507140021 15 31 0.0 6.4 0.00 0.58 0.38 62 1007.8
20260507134503 14 353 0.0 6.4 0.00 0.58 0.38 65 1007.8
20260507133008 13 15 1.6 6.4 0.00 0.58 0.38 70 1007.8
20260507131517 13 257 1.6 6.4 0.00 0.58 0.38 74 1007.9
20260507130016 12 262 0.0 4.8 0.00 0.58 0.38 72 1007.9
20260507124521 12 257 1.6 9.7 0.00 0.58 0.38 64 1008.1
20260507123004 11 240 0.0 4.8 0.00 0.58 0.38 44 1008.1
20260507121511 10 242 0.0 4.8 0.00 0.58 0.38 16 1007.9
20260507120010 10 259 0.0 0.0 0.00 0.58 0.38 2 1007.8
20260507114514 9 244 0.0 0.0 0.00 0.58 0.38 4 1008.0
20260507113039 9 250 0.0 1.6 0.00 0.58 0.38 4 1007.9
20260507111535 9 212 0.0 0.0 0.00 0.58 0.38 3 1007.8
20260507110011 9 212 0.0 0.0 0.00 0.58 0.38 5 1007.6
20260507104513 9 212 0.0 0.0 0.03 0.58 0.38 7 1007.8
20260507103021 9 212 0.0 0.0 0.08 0.58 0.38 10 1008.1
20260507101525 8 136 0.0 0.0 0.13 0.58 0.38 14 1007.5
20260507100026 8 250 0.0 0.0 0.23 0.58 0.38 18 1007.7
20260507094516 8 250 0.0 0.0 0.25 0.56 0.36 24 1007.3
20260507093018 9 320 0.0 3.2 0.20 0.51 0.30 26 1007.3
20260507091523 9 50 0.0 0.0 0.18 0.46 0.25 34 1007.3
20260507090026 9 276 0.0 3.2 0.10 0.36 0.15 40 1007.5
20260507084534 10 257 0.0 1.6 0.08 0.30 0.10 44 1007.5
20260507083012 10 249 0.0 0.0 0.10 0.30 0.10 49 1007.2
20260507081520 10 259 0.0 6.4 0.08 0.28 0.08 57 1007.1
20260507080021 11 259 0.0 8.0 0.05 0.25 0.05 64 1007.5
20260507074523 11 336 0.0 3.2 0.03 0.23 0.03 68 1007.1
20260507073029 12 300 0.0 4.8 0.00 0.20 0.00 72 1006.9
20260507071513 12 34 0.0 4.8 0.00 0.20 0.00 70 1006.0
20260507070021 12 295 0.0 1.6 0.00 0.20 0.00 71 1006.1
20260507064525 12 47 0.0 3.2 0.00 0.20 0.00 69 1006.0
20260507063028 13 288 0.0 3.2 0.00 0.20 0.00 69 1006.2
20260507061529 13 256 0.0 1.6 0.00 0.20 0.00 63 1006.1
20260507060016 13 37 0.0 3.2 0.00 0.20 0.00 62 1006.1
20260507054520 13 131 0.0 8.0 0.00 0.20 0.00 62 1006.2
20260507053028 13 300 0.0 6.4 0.00 0.20 0.00 61 1006.5
20260507051528 14 249 0.0 0.0 0.00 0.20 0.00 55 1006.3
20260507050031 14 257 0.0 8.0 0.00 0.20 0.00 55 1006.1
20260507044517 15 53 1.6 8.0 0.00 0.20 0.00 26 1006.3
20260507043010 15 244 0.0 0.0 0.00 0.20 0.00 8 1006.1
20260507041504 15 290 0.0 4.8 0.00 0.20 0.00 100 1006.1
20260507040008 15 234 0.0 0.0 0.00 0.20 0.00 100 1006.4
20260507034522 15 196 0.0 3.2 0.00 0.20 0.20 100 1006.4
20260507033020 15 248 3.2 16.1 0.00 0.20 0.20 100 1006.0
20260507031505 15 217 1.6 11.3 0.00 0.20 0.20 1 1006.0
20260507030007 15 239 3.2 17.7 0.00 0.20 0.20 2 1005.8
20260507024514 15 203 4.8 11.3 0.00 0.20 0.20 100 1005.6
20260507023018 15 217 1.6 16.1 0.00 0.20 0.20 100 1006.1
20260507021523 15 219 1.6 20.9 0.00 0.20 0.20 100 1005.9
20260507020006 15 225 6.4 16.1 0.00 0.20 0.20 100 1005.9
20260507014506 15 210 8.0 19.3 0.00 0.20 0.20 100 1005.9
20260507013013 15 217 6.4 19.3 0.00 0.20 0.20 100 1006.1
20260507011532 15 200 4.8 19.3 0.00 0.20 0.20 100 1006.2
20260507010024 15 213 6.4 17.7 0.00 0.20 0.20 100 1006.4
20260507004506 15 232 4.8 16.1 0.00 0.20 0.20 100 1006.4
20260507003008 14 252 6.4 17.7 0.03 0.20 0.20 100 1006.3
20260507001538 15 243 1.6 19.3 0.05 0.20 0.20 100 1006.1
20260507000023 15 229 4.8 20.9 0.08 0.20 0.20 1 1005.8
20260506234524 15 229 4.8 17.7 0.08 0.20 0.20 3 1005.9
20260506233009 15 243 3.2 16.1 0.05 0.18 0.18 6 1005.8
20260506231511 15 196 6.4 24.1 0.03 0.15 0.15 12 1005.9
20260506230017 15 250 1.6 16.1 0.00 0.13 0.13 16 1005.8
20260506224522 15 246 4.8 12.9 0.00 0.13 0.13 13 1005.9
20260506223031 15 226 6.4 19.3 0.03 0.13 0.13 11 1006.0
20260506221508 15 224 1.6 17.7 0.03 0.13 0.13 11 1006.3
20260506220012 15 162 3.2 14.5 0.03 0.13 0.13 15 1006.4
20260506214517 16 192 3.2 20.9 0.03 0.13 0.13 27 1006.5
20260506213020 16 198 4.8 20.9 0.00 0.10 0.10 43 1006.8
20260506211526 16 203 11.3 22.5 0.03 0.10 0.10 48 1006.7
20260506210009 16 168 8.0 17.7 0.03 0.10 0.10 50 1006.8
20260506204514 16 109 8.0 25.7 0.05 0.10 0.10 49 1006.8
20260506203022 16 172 6.4 24.1 0.05 0.10 0.10 58 1007.0
20260506201526 16 231 3.2 17.7 0.05 0.08 0.08 58 1006.8
20260506200032 17 185 6.4 16.1 0.08 0.08 0.08 65 1006.7
20260506194516 17 155 6.4 14.5 0.05 0.05 0.05 70 1006.8
20260506193029 18 194 6.4 17.7 0.05 0.05 0.05 72 1007.0